This is the latest recevied weather packets stored in our database for station/object EA1CUE-WX. If no packets are shown the sender has not sent any weather packets the latest 10 day(s).
| Time | Temp. | Humidity | Pressure | Rain* | Wind** | Luminosity | Snow |
|---|---|---|---|---|---|---|---|
| 1787751529 | 12.22° C | 1% | 1008.6 hPa | 0 mm | - | - | - |
| 1787751230 | 12.22° C | 1% | 1008.7 hPa | 0.51 mm | - | - | - |
| 1787750929 | 12.22° C | 1% | 1008.7 hPa | 1.27 mm | - | - | - |
| 1787750630 | 12.78° C | 1% | 1008.9 hPa | 1.78 mm | - | - | - |
| 1787750330 | 12.78° C | 1% | 1008.6 hPa | 1.78 mm | - | - | - |
| 1787750030 | 12.78° C | 1% | 1008.5 hPa | 1.78 mm | - | - | - |
| 1787749730 | 12.78° C | 1% | 1008.5 hPa | 2.03 mm | - | - | - |
| 1787749430 | 12.78° C | 1% | 1008.3 hPa | 2.29 mm | - | - | - |
| 1787749130 | 12.78° C | 1% | 1008.2 hPa | 2.79 mm | - | - | - |
| 1787748830 | 12.78° C | 1% | 1008.3 hPa | 3.3 mm | - | - | - |
| 1787748529 | 12.78° C | 1% | 1008.2 hPa | 3.56 mm | - | - | - |
| 1787748230 | 12.78° C | 1% | 1008.5 hPa | 3.56 mm | - | - | - |
| 1787747929 | 12.78° C | 1% | 1008.7 hPa | 3.3 mm | - | - | - |
| 1787747629 | 12.78° C | 1% | 1009.6 hPa | 2.79 mm | - | - | - |
| 1787747330 | 12.78° C | 1% | 1009.7 hPa | 2.29 mm | - | - | - |
| 1787747030 | 13.33° C | 1% | 1009.8 hPa | 2.03 mm | - | - | - |
| 1787746729 | 12.78° C | 1% | 1009.9 hPa | 2.03 mm | - | - | - |
| 1787746430 | 12.78° C | 1% | 1009.9 hPa | 2.29 mm | - | - | - |
| 1787746130 | 12.78° C | 1% | 1009.8 hPa | 2.29 mm | - | - | - |
| 1787745830 | 12.78° C | 1% | 1009.9 hPa | 2.03 mm | - | - | - |
| 1787745529 | 12.78° C | 1% | 1009.8 hPa | 1.78 mm | - | - | - |
| 1787745229 | 12.78° C | 1% | 1009.5 hPa | 1.02 mm | - | - | - |
| 1787744930 | 12.78° C | 1% | 1009.2 hPa | 0.76 mm | - | - | - |
| 1787744629 | 12.78° C | 1% | 1009.2 hPa | 0.76 mm | - | - | - |
| 1787744329 | 12.78° C | 1% | 1008.9 hPa | 0.76 mm | - | - | - |
* Rain latest hour (hover to see other rain measurements)
** Current wind speed in m/s (hover to see current wind gust speed)